[[{"header":{"parameterUnit":"m.s-1","parameterCategory":2,"la1":30.2991,"la2":30.254,"lo1":-89.0895,"lo2":-89.0444,"dy":0.0017,"dx":0.0017,"nx":28,"ny":28,"refTime":"2024-04-26T03:00:00:Z","depth":"0","parameterNumber":2,"parameterNumberName":"U-component_of_CURRENTS"},"data":[0,0,0,0,0,0,0,0,0,0,0,0,0,0,0,0,0,0,0,0,0,0,0,0,0,0,0,0,0,0,0,0,0,0,0,0,0,0,0,0,0,0,0,0,0,0,0,0,0,0,0,0,0,0,0,0,0,0,0.1639,0.164,0,0.1719,0.172,0.1721,0.174,0.1739,0.1739,0.1738,0.1797,0.1799,0.1801,0,0,0,0,0,0,0,0,0,0,0,0,0,0.1538,0.1539,0.1639,0.164,0.1641,0.1719,0.172,0.1721,0.174,0.1739,0.1738,0.1738,0.1796,0.1798,0.1801,0,0,0,0,0,0,0,0,0,0,0,0,0,0.1596,0.154,0.1638,0.1659,0.1662,0.1719,0.172,0.1722,0.174,0.1739,0.1738,0.1737,0.1795,0.1798,0.1801,0.1837,0,0,0.1811,0.1812,0,0,0,0,0,0,0,0,0.1593,0.16,0.1655,0.1658,0.1661,0.1719,0.1706,0.1759,0.174,0.171,0.1738,0.1737,0.1769,0.1774,0.1792,0.1839,0.1842,0.1811,0.1813,0.1814,0.1815,0,0,0,0,0,0,0,0.1589,0.1597,0.167,0.1656,0.166,0.1678,0.1685,0.1717,0.1743,0.1713,0.1714,0.1724,0.1771,0.1789,0.1793,0.1843,0.1811,0.1814,0.1816,0.1817,0.1979,0.1981,0,0,0,0,0,0,0.1578,0.1593,0.1668,0.1673,0.1624,0.168,0.1688,0.1701,0.1743,0.1749,0.1724,0.1724,0.1784,0.1789,0.1795,0.1872,0.1814,0.1817,0.1819,0.1977,0.198,0.1982,0,0,0,0,0,0,0.1576,0.1584,0.1665,0.1634,0.1646,0.1682,0.1697,0.1703,0.172,0.1752,0.1757,0.1735,0.1783,0.1791,0.184,0.1873,0.1818,0.1821,0.1974,0.1978,0.1981,0.2004,0,0,0,0,0,0,0.1573,0.1583,0.1593,0.1634,0.1647,0.1706,0.1698,0.1705,0.1728,0.1728,0.1764,0.1768,0.1783,0.1836,0.1843,0.1876,0.1824,0.1971,0.1975,0.198,0.2,0.2008,0.2015,0,0,0,0,0,0.1569,0.1591,0.1593,0.1602,0.1658,0.1707,0.1716,0.1739,0.1729,0.1748,0.1776,0.1767,0.187,0.184,0.1848,0.1883,0.1968,0.1974,0.1979,0.1997,0.2007,0.2015,0,0,0,0,0,0,0.1558,0.1596,0.1599,0.1632,0.1667,0.171,0.1733,0.174,0.1777,0.1777,0.1794,0.1802,0.1864,0.1874,0.184,0.1947,0.192,0.1928,0.1931,0.194,0.1948,0.1954,0.1826,0,0,0,0,0,0.1558,0.1581,0.162,0.1647,0.1664,0.1695,0.1717,0.1733,0.1769,0.1783,0.1808,0.1845,0.1896,0.1915,0.1961,0.2009,0.2095,0.2041,0.2049,0.2054,0.207,0.2262,0.2289,0.2,0.2,0.2,0,0,0.156,0.1585,0.1597,0.1645,0.1673,0.1711,0.1707,0.1747,0.1777,0.1785,0.1836,0.1874,0.1919,0.1984,0.2011,0.1991,0.2181,0.2062,0.2066,0.2078,0.2271,0.2299,0.2324,0.2004,0.2003,0.2003,0,0,0.1582,0.16,0.1627,0.1657,0.1702,0.1726,0.1735,0.1781,0.1801,0.1855,0.1879,0.194,0.1995,0.2047,0.2076,0.2153,0.222,0.2162,0.2195,0.2381,0.2407,0.2431,0.2571,0.2607,0.2157,0.2157,0.2157,0,0.158,0.162,0.1644,0.1681,0.1707,0.1731,0.1767,0.18,0.1855,0.1892,0.1875,0.202,0.2034,0.2147,0.2159,0.217,0.2279,0.2149,0.2393,0.2418,0.2442,0.258,0.262,0.2159,0.2159,0.2158,0.2158,0,0.1627,0.1655,0.1677,0.1726,0.1759,0.1797,0.1839,0.1875,0.1894,0.1941,0.2052,0.2101,0.2198,0.2201,0.2191,0.2361,0.2384,0.2387,0.2368,0.2473,0.2611,0.2652,0.2161,0.2161,0.216,0.216,0,0,0.1633,0.1693,0.1701,0.1724,0.1783,0.1816,0.1871,0.1944,0.2012,0.2066,0.219,0.2241,0.2293,0.2332,0.2356,0.2471,0.2699,0.2487,0.2496,0.2621,0.3111,0.3042,0.308,0.2763,0.277,0.2776,0.3138,0,0.1661,0.1721,0.1748,0.1805,0.1841,0.1875,0.1934,0.2004,0.2077,0.2208,0.2284,0.2415,0.2341,0.2416,0.2524,0.2679,0.281,0.26,0.2995,0.3006,0.293,0.3126,0.3037,0.3346,0.3178,0.3184,0.3189,0,0.1706,0.1737,0.1789,0.1851,0.1872,0.1906,0.2015,0.2078,0.2248,0.2321,0.2461,0.2559,0.2737,0.2675,0.2991,0.2872,0.2993,0.3086,0.3104,0.3061,0.3015,0.3218,0.3427,0.3329,0.3252,0.3247,0.3243,0,0.1711,0.177,0.1805,0.1826,0.1902,0.1929,0.1978,0.2113,0.2221,0.2432,0.2579,0.2773,0.2939,0.3121,0.3261,0.3186,0.3621,0.3558,0.3609,0.3604,0.3615,0.3598,0.3772,0.3817,0.3816,0.3815,0.3814,0,0.1743,0.1773,0.1803,0.1825,0.1896,0.1938,0.2063,0.2138,0.2338,0.2525,0.2657,0.2865,0.307,0.3314,0.3403,0.3641,0.3759,0.3674,0.3725,0.3615,0.3595,0.3573,0.3487,0.3829,0.3826,0.3823,0.3821,0,0.1779,0.1779,0.1834,0.1887,0.1903,0.1964,0.2112,0.225,0.239,0.2661,0.2758,0.3039,0.333,0.3504,0.383,0.3847,0.3961,0.4096,0.3915,0.3935,0.3824,0.3742,0.3831,0.3708,0.4252,0.4253,0.4254,0,0.1818,0.1846,0.1891,0.1942,0.1967,0.2056,0.2164,0.2278,0.2441,0.276,0.2929,0.3255,0.3474,0.3888,0.4008,0.4218,0.404,0.4229,0.404,0.386,0.3811,0.3589,0.3459,0.4083,0.4082,0.4082,0.4081,0,0.1932,0.1934,0.1992,0.206,0.214,0.2235,0.2368,0.2468,0.2654,0.2852,0.3116,0.3297,0.3678,0.3859,0.4098,0.4188,0.4009,0.4218,0.414,0.379,0.3466,0.3354,0.3758,0.4076,0.4077,0.4077,0.4077,0.4078,0.2054,0.2105,0.2157,0.2224,0.2302,0.2368,0.2421,0.2569,0.2731,0.2949,0.316,0.3376,0.3701,0.4013,0.4062,0.4084,0.3983,0.4017,0.3972,0.3792,0.354,0.3882,0.4161,0.4162,0.4162,0.4163,0.4164,0,0.2194,0.2235,0.2327,0.2358,0.242,0.2429,0.2549,0.2578,0.2683,0.2913,0.3082,0.3424,0.3624,0.3811,0.3978,0.3893,0.367,0.3791,0.3495,0.3407,0.3872,0.3725,0.379,0.379,0.379,0.379,0.379,0.379,0.2278,0.2363,0.2367,0.2437,0.2458,0.2481,0.2502,0.2527,0.263,0.2782,0.2953,0.3159,0.3515,0.38,0.3791,0.37,0.3397,0.3275,0.3191,0.3553,0.3568,0.3584,0.3428,0.3429,0.3428,0.2606,0.26,0.2596]},{"header":{"parameterUnit":"m.s-1","parameterCategory":2,"la1":30.2991,"la2":30.254,"lo1":-89.0895,"lo2":-89.0444,"dy":0.0017,"dx":0.0017,"nx":28,"ny":28,"refTime":"2024-04-26T03:00:00:Z","depth":"0","parameterNumber":3,"parameterNumberName":"V-component_of_CURRENTS"},"data":[0,0,0,0,0,0,0,0,0,0,0,0,0,0,0,0,0,0,0,0,0,0,0,0,0,0,0,0,0,0,0,0,0,0,0,0,0,0,0,0,0,0,0,0,0,0,0,0,0,0,0,0,0,0,0,0,0,0,0.0073,0.0073,0,0.0062,0.0062,0.0062,0.0046,0.0046,0.0046,0.0045,0.0018,0.0017,0.0017,0,0,0,0,0,0,0,0,0,0,0,0,0,0.0076,0.0076,0.0073,0.0073,0.0073,0.0062,0.0062,0.0062,0.0047,0.0046,0.0045,0.0045,0.0018,0.0017,0.0017,0,0,0,0,0,0,0,0,0,0,0,0,0,0.0073,0.0076,0.0073,0.0062,0.0061,0.0062,0.0062,0.0062,0.0047,0.0046,0.0045,0.0045,0.0018,0.0017,0.0017,0.0026,0,0,0.0015,0.0015,0,0,0,0,0,0,0,0,0.0073,0.0073,0.0064,0.0063,0.0062,0.0054,0.0053,0.0049,0.0047,0.0054,0.0045,0.0044,0.0027,0.0026,0.0028,0.0025,0.0024,0.0015,0.0015,0.0015,0.0014,0,0,0,0,0,0,0,0.0073,0.0073,0.0071,0.0064,0.0062,0.0056,0.0056,0.0053,0.0045,0.0053,0.0052,0.0048,0.0027,0.0029,0.0027,0.0024,0.0015,0.0015,0.0014,0.0014,0.0014,0.0014,0,0,0,0,0,0,0.0072,0.0074,0.0071,0.007,0.0064,0.0057,0.0056,0.0058,0.0046,0.0043,0.0049,0.0047,0.003,0.0028,0.0026,0.0027,0.0015,0.0014,0.0014,0.0014,0.0014,0.0014,0,0,0,0,0,0,0.0073,0.0072,0.0071,0.007,0.0069,0.0057,0.006,0.0058,0.005,0.0042,0.0039,0.0041,0.0029,0.0027,0.0012,0.0026,0.0014,0.0013,0.0013,0.0014,0.0014,0.0034,0,0,0,0,0,0,0.0073,0.0073,0.0074,0.007,0.0069,0.0064,0.0061,0.0059,0.0049,0.0047,0.0035,0.0032,0.0029,0.0013,0.0012,0.0025,0.0013,0.0013,0.0013,0.0014,0.0033,0.0035,0.0037,0,0,0,0,0,0.0073,0.008,0.0074,0.0073,0.0071,0.0064,0.0063,0.0053,0.0049,0.0044,0.0034,0.0032,0.0016,0.0012,0.0011,0.0024,0.0013,0.0013,0.0014,0.0032,0.0035,0.0037,0,0,0,0,0,0,0.0083,0.0078,0.0072,0.0077,0.0065,0.006,0.006,0.005,0.004,0.0039,0.0029,0.0025,0.002,0.0017,0.0013,0.0026,0.0017,0.0017,0.0031,0.0034,0.0036,0.0076,0.0013,0,0,0,0,0,0.0085,0.0086,0.0077,0.0078,0.0076,0.0066,0.0062,0.0054,0.0045,0.004,0.0031,0.0026,0.0025,0.0022,0.0019,0.0022,0.0058,0.0032,0.0034,0.0035,0.0068,0.0144,0.0157,0.0016,0.0016,0.0016,0,0,0.0088,0.0085,0.0086,0.0079,0.0075,0.0072,0.0062,0.0057,0.0053,0.0039,0.0034,0.0029,0.0025,0.0029,0.0028,0.0026,0.0086,0.0036,0.0038,0.007,0.0147,0.0161,0.0174,0.0017,0.0017,0.0017,0,0,0.0095,0.0095,0.0097,0.009,0.008,0.0075,0.007,0.0061,0.0057,0.0049,0.0043,0.0051,0.0036,0.005,0.0052,0.0065,0.0091,0.0054,0.0101,0.0175,0.0188,0.02,0.0232,0.0248,0.0059,0.0059,0.0059,0,0.0097,0.0098,0.0094,0.0093,0.009,0.0075,0.0074,0.007,0.0055,0.0078,0.0048,0.0087,0.0057,0.0106,0.0093,0.0073,0.0108,0.009,0.0181,0.0194,0.0206,0.0237,0.0253,0.006,0.006,0.006,0.006,0,0.0104,0.0101,0.0103,0.0097,0.0096,0.0091,0.0086,0.0093,0.0087,0.0101,0.0144,0.0128,0.0175,0.0143,0.011,0.0185,0.0177,0.0172,0.018,0.0222,0.025,0.0267,0.0061,0.0061,0.0061,0.006,0,0,0.0119,0.0107,0.0108,0.012,0.0097,0.0113,0.0112,0.0137,0.0213,0.0179,0.029,0.0231,0.027,0.0276,0.0258,0.0286,0.0354,0.026,0.0263,0.0302,0.0501,0.0444,0.0457,0.0373,0.0377,0.038,0.0474,0,0.012,0.0119,0.0114,0.0132,0.0136,0.0139,0.0174,0.0204,0.0243,0.0353,0.0351,0.0446,0.0309,0.0379,0.0373,0.0398,0.0406,0.0328,0.0447,0.0451,0.0406,0.0478,0.0391,0.0465,0.0491,0.0494,0.0496,0,0.0131,0.013,0.0132,0.0188,0.0201,0.0222,0.0327,0.036,0.0484,0.0536,0.0611,0.0659,0.0709,0.061,0.0634,0.0597,0.0543,0.0522,0.0526,0.0491,0.0428,0.0434,0.0495,0.0249,0.0522,0.052,0.0518,0,0.0154,0.0162,0.0169,0.0173,0.0222,0.0264,0.0313,0.0422,0.0549,0.0699,0.0861,0.0884,0.1007,0.0928,0.0843,0.0772,0.0885,0.0796,0.068,0.0674,0.0634,0.0619,0.0489,0.0812,0.0812,0.0812,0.0812,0,0.0164,0.019,0.0193,0.0206,0.0324,0.0324,0.0511,0.0573,0.0765,0.1,0.0989,0.1204,0.1104,0.1155,0.0978,0.0902,0.0993,0.0721,0.0717,0.063,0.0615,0.0426,0.0307,0.0815,0.0814,0.0814,0.0813,0,0.0227,0.0186,0.0255,0.0304,0.0339,0.0448,0.0667,0.0863,0.0964,0.1289,0.1374,0.1518,0.1564,0.1421,0.1359,0.1141,0.0893,0.0963,0.0842,0.082,0.043,0.0317,0.0273,0.0168,0.0857,0.0857,0.0856,0,0.0271,0.0291,0.0372,0.0481,0.0522,0.0679,0.0859,0.097,0.1192,0.1497,0.1704,0.1839,0.1974,0.182,0.1455,0.1166,0.0936,0.0895,0.0718,0.0428,0.03,0.0226,0.0135,0.0659,0.0657,0.0655,0.0654,0,0.0439,0.0458,0.0541,0.0721,0.0894,0.1101,0.1321,0.149,0.1687,0.1919,0.2217,0.2332,0.2176,0.1889,0.1474,0.1214,0.0697,0.085,0.0611,0.0194,0.0055,-0.0055,0.0544,0.0639,0.0641,0.0642,0.0643,0.0643,0.0647,0.0761,0.0877,0.1059,0.1248,0.1493,0.1659,0.19,0.2188,0.2492,0.2564,0.2714,0.2267,0.1679,0.1315,0.0547,0.0594,0.0283,0.019,0.0158,-0.0008,0.0535,0.0582,0.0583,0.0584,0.0585,0.0586,0,0.0951,0.1051,0.1236,0.1432,0.1641,0.1677,0.1982,0.2137,0.2421,0.2689,0.2877,0.2714,0.2107,0.1467,0.0466,-0.0034,-0.0222,-0.0293,-0.0448,-0.0495,0.0038,-0.0045,-0.0204,-0.0204,-0.0204,-0.0204,-0.0203,-0.0203,0.1148,0.1364,0.1408,0.1742,0.1863,0.2117,0.2256,0.2465,0.264,0.289,0.2943,0.2981,0.2459,0.0822,-0.0358,-0.0629,-0.0939,-0.1013,-0.1106,-0.0822,-0.0777,-0.0735,-0.0844,-0.1168,-0.1169,-0.1642,-0.1648,-0.1652]}],[{"header":{"parameterUnit":"m.s-1","parameterCategory":2,"la1":30.2991,"la2":30.254,"lo1":-89.0895,"lo2":-89.0444,"dy":0.0017,"dx":0.0017,"nx":28,"ny":28,"refTime":"2024-04-26T03:00:00:Z","depth":"2","parameterNumber":2,"parameterNumberName":"U-component_of_CURRENTS"},"data":[0,0,0,0,0,0,0,0,0,0,0,0,0,0,0,0,0,0,0,0,0,0,0,0,0,0,0,0,0,0,0,0,0,0,0,0,0,0,0,0,0,0,0,0,0,0,0,0,0,0,0,0,0,0,0,0,0,0,0.1475,0.1475,0,0.1509,0.151,0.151,0.1484,0.1483,0.1482,0.1482,0.1487,0.1488,0.1489,0,0,0,0,0,0,0,0,0,0,0,0,0,0.1425,0.1425,0.1474,0.1475,0.1476,0.1509,0.151,0.151,0.1484,0.1483,0.1482,0.1481,0.1487,0.1488,0.1489,0,0,0,0,0,0,0,0,0,0,0,0,0,0.1449,0.1426,0.1474,0.1469,0.1469,0.1509,0.151,0.151,0.1484,0.1483,0.1482,0.1481,0.1487,0.1488,0.149,0.1524,0,0,0.1494,0.1495,0,0,0,0,0,0,0,0,0.1448,0.145,0.1469,0.147,0.147,0.1494,0.1494,0.1514,0.1485,0.1476,0.1482,0.148,0.149,0.1491,0.1497,0.1525,0.1525,0.1494,0.1495,0.1496,0.1496,0,0,0,0,0,0,0,0.1446,0.1449,0.1485,0.147,0.1471,0.1479,0.148,0.1498,0.1487,0.1476,0.1475,0.1484,0.1489,0.1495,0.1496,0.1525,0.1494,0.1495,0.1496,0.1497,0.1672,0.1675,0,0,0,0,0,0,0.1447,0.1447,0.1484,0.1487,0.1459,0.1481,0.1482,0.1485,0.1487,0.1487,0.1485,0.1483,0.1493,0.1495,0.1497,0.1583,0.1496,0.1497,0.1498,0.1668,0.1673,0.1677,0,0,0,0,0,0,0.1446,0.145,0.1483,0.147,0.1476,0.1483,0.1486,0.1486,0.1502,0.1495,0.1493,0.1502,0.1492,0.1495,0.154,0.1581,0.1498,0.1499,0.1664,0.1669,0.1675,0.1727,0,0,0,0,0,0,0.1444,0.1449,0.1456,0.147,0.1476,0.1518,0.1488,0.1488,0.151,0.1508,0.1509,0.1508,0.1492,0.1538,0.1541,0.1581,0.15,0.1659,0.1666,0.1673,0.172,0.1733,0.1745,0,0,0,0,0,0.1442,0.1456,0.1456,0.1461,0.1484,0.152,0.1524,0.1523,0.1513,0.153,0.1541,0.1508,0.1586,0.1542,0.1545,0.1586,0.1655,0.1664,0.1672,0.1715,0.1731,0.1744,0,0,0,0,0,0,0.1438,0.1456,0.1456,0.1474,0.1501,0.1516,0.1533,0.1538,0.156,0.1558,0.1546,0.1547,0.1607,0.1604,0.1556,0.1666,0.162,0.163,0.1652,0.1667,0.1679,0.1661,0.1501,0,0,0,0,0,0.1443,0.1458,0.148,0.1499,0.1511,0.1528,0.1543,0.1548,0.1569,0.1576,0.158,0.1604,0.1647,0.1659,0.1688,0.1739,0.1772,0.1778,0.179,0.18,0.1794,0.1905,0.1926,0.1705,0.1705,0.1704,0,0,0.1446,0.1461,0.1468,0.1501,0.1517,0.1548,0.1533,0.1565,0.1599,0.1576,0.162,0.1644,0.1675,0.1735,0.1762,0.1732,0.1888,0.1811,0.1818,0.1807,0.1916,0.1937,0.1956,0.171,0.1709,0.1708,0,0,0.147,0.1476,0.1499,0.1524,0.156,0.1574,0.1589,0.1616,0.1633,0.1687,0.1692,0.1742,0.1789,0.1819,0.1843,0.1947,0.1954,0.1969,0.2004,0.2112,0.213,0.2146,0.2235,0.2259,0.1968,0.1968,0.1968,0,0.1475,0.1503,0.1515,0.1549,0.1571,0.1589,0.1624,0.1655,0.1696,0.1724,0.1709,0.1827,0.183,0.193,0.1954,0.1969,0.2031,0.1933,0.2125,0.2141,0.2157,0.2244,0.2269,0.1972,0.1971,0.1971,0.1971,0,0.1517,0.1541,0.156,0.1603,0.1634,0.1667,0.1707,0.1743,0.1765,0.1795,0.1895,0.1928,0.1997,0.2016,0.2003,0.2129,0.2139,0.2129,0.2074,0.2182,0.2268,0.2293,0.1977,0.1976,0.1975,0.1974,0,0,0.1519,0.1576,0.1582,0.1609,0.1661,0.1692,0.1753,0.1817,0.1879,0.1923,0.2014,0.2075,0.21,0.2131,0.2153,0.2219,0.2368,0.2212,0.2217,0.2277,0.2615,0.2477,0.2491,0.2399,0.2404,0.2407,0.2637,0,0.1548,0.1607,0.1631,0.1695,0.1728,0.1761,0.1823,0.1885,0.1948,0.204,0.2096,0.2192,0.2151,0.2204,0.227,0.2349,0.2435,0.2306,0.2522,0.2528,0.2372,0.2516,0.2321,0.2496,0.2661,0.2665,0.2668,0,0.1582,0.1617,0.1673,0.1744,0.1763,0.1805,0.1907,0.1972,0.2094,0.2153,0.2253,0.2304,0.2416,0.2371,0.2564,0.2491,0.2557,0.2604,0.2615,0.2476,0.2436,0.2416,0.2535,0.2711,0.2707,0.2704,0.2701,0,0.1583,0.1649,0.1691,0.1713,0.1795,0.1833,0.1887,0.2001,0.2088,0.2241,0.2342,0.2461,0.2571,0.2661,0.2722,0.2678,0.2926,0.2889,0.2837,0.2829,0.2695,0.2665,0.3046,0.3046,0.3045,0.3045,0.3044,0,0.1607,0.1645,0.1693,0.172,0.1796,0.1846,0.196,0.204,0.2186,0.2315,0.2412,0.2547,0.2653,0.2783,0.2809,0.2897,0.3016,0.2869,0.2889,0.2708,0.2679,0.2873,0.285,0.3053,0.3051,0.305,0.3048,0,0.1622,0.1643,0.1704,0.1774,0.1802,0.1863,0.2,0.2103,0.2237,0.2421,0.248,0.267,0.2817,0.2899,0.306,0.3026,0.31,0.3102,0.2859,0.2842,0.2915,0.2892,0.3094,0.3092,0.3089,0.3087,0.3086,0,0.1646,0.1667,0.1743,0.1791,0.1827,0.1918,0.2005,0.2124,0.2233,0.2483,0.2577,0.2771,0.2859,0.3034,0.3019,0.3067,0.3109,0.2904,0.2753,0.2926,0.2926,0.2907,0.2888,0.2632,0.2627,0.2623,0.262,0,0.1687,0.17,0.1744,0.1832,0.1909,0.1986,0.2096,0.217,0.2327,0.2461,0.2611,0.2687,0.2862,0.2801,0.2854,0.284,0.2859,0.2813,0.3142,0.2601,0.2496,0.2492,0.249,0.2582,0.2585,0.2588,0.259,0.2592,0.1721,0.1743,0.1786,0.1854,0.1944,0.199,0.2016,0.2127,0.2215,0.2316,0.2464,0.2505,0.2588,0.2524,0.2499,0.2498,0.2663,0.2559,0.2572,0.259,0.2446,0.2337,0.2368,0.2371,0.2373,0.2375,0.2376,0,0.173,0.1745,0.1813,0.1849,0.1886,0.1954,0.2034,0.2014,0.204,0.2158,0.2188,0.2023,0.2038,0.2145,0.2101,0.2114,0.2091,0.2029,0.2001,0.2042,0.2077,0.1904,0.1685,0.1683,0.168,0.1678,0,0,0.174,0.1744,0.1731,0.1728,0.1777,0.1771,0.1772,0.177,0.1816,0.1734,0.1731,0.1846,0.205,0.1796,0.1812,0.1758,0.187,0.1689,0.2252,0.2259,0.229,0.2403,0.2185,0,0,0,0,0]},{"header":{"parameterUnit":"m.s-1","parameterCategory":2,"la1":30.2991,"la2":30.254,"lo1":-89.0895,"lo2":-89.0444,"dy":0.0017,"dx":0.0017,"nx":28,"ny":28,"refTime":"2024-04-26T03:00:00:Z","depth":"2","parameterNumber":3,"parameterNumberName":"V-component_of_CURRENTS"},"data":[0,0,0,0,0,0,0,0,0,0,0,0,0,0,0,0,0,0,0,0,0,0,0,0,0,0,0,0,0,0,0,0,0,0,0,0,0,0,0,0,0,0,0,0,0,0,0,0,0,0,0,0,0,0,0,0,0,0,-0.0434,-0.0435,0,-0.0518,-0.0519,-0.0521,-0.0595,-0.0596,-0.0596,-0.0597,-0.0618,-0.0618,-0.0618,0,0,0,0,0,0,0,0,0,0,0,0,0,-0.0359,-0.036,-0.0434,-0.0435,-0.0435,-0.0518,-0.0519,-0.0521,-0.0595,-0.0596,-0.0596,-0.0597,-0.0618,-0.0618,-0.0618,0,0,0,0,0,0,0,0,0,0,0,0,0,-0.0415,-0.036,-0.0434,-0.048,-0.0484,-0.0518,-0.0519,-0.0521,-0.0595,-0.0596,-0.0596,-0.0597,-0.0618,-0.0618,-0.0618,-0.0603,0,0,-0.0618,-0.0618,0,0,0,0,0,0,0,0,-0.0412,-0.0419,-0.0472,-0.0476,-0.0482,-0.0544,-0.0501,-0.0544,-0.0595,-0.0557,-0.0597,-0.0598,-0.0584,-0.0587,-0.0607,-0.0604,-0.0605,-0.0618,-0.0618,-0.0618,-0.0618,0,0,0,0,0,0,0,-0.0408,-0.0415,-0.0471,-0.0473,-0.0478,-0.0503,-0.0512,-0.051,-0.0567,-0.056,-0.0565,-0.0568,-0.0587,-0.0607,-0.0608,-0.0605,-0.0618,-0.0618,-0.0618,-0.0619,-0.0561,-0.056,0,0,0,0,0,0,-0.0388,-0.0412,-0.0468,-0.0473,-0.0444,-0.0503,-0.0514,-0.0526,-0.0568,-0.0575,-0.0567,-0.0571,-0.0607,-0.0608,-0.0609,-0.0568,-0.0618,-0.0619,-0.0619,-0.0563,-0.0561,-0.0559,0,0,0,0,0,0,-0.0387,-0.0393,-0.0465,-0.0441,-0.0451,-0.0503,-0.0517,-0.0527,-0.0534,-0.0574,-0.058,-0.0561,-0.0607,-0.0609,-0.0601,-0.057,-0.0619,-0.0619,-0.0565,-0.0562,-0.056,-0.05,0,0,0,0,0,0,-0.0384,-0.0392,-0.0389,-0.044,-0.0452,-0.0473,-0.0516,-0.0528,-0.0534,-0.054,-0.057,-0.0575,-0.0608,-0.0601,-0.0601,-0.0571,-0.0619,-0.0567,-0.0564,-0.0561,-0.0504,-0.0496,-0.0489,0,0,0,0,0,-0.0382,-0.038,-0.0389,-0.0395,-0.0448,-0.0472,-0.0481,-0.0523,-0.0532,-0.0532,-0.0555,-0.0573,-0.0582,-0.06,-0.0601,-0.0569,-0.0568,-0.0565,-0.0561,-0.0508,-0.0498,-0.049,0,0,0,0,0,0,-0.0348,-0.0389,-0.0399,-0.041,-0.0429,-0.0483,-0.0489,-0.0503,-0.0523,-0.0522,-0.0559,-0.0564,-0.0545,-0.0559,-0.0578,-0.0542,-0.0575,-0.0571,-0.0534,-0.0525,-0.0517,-0.0532,-0.0619,0,0,0,0,0,-0.0335,-0.0343,-0.038,-0.0383,-0.0394,-0.0431,-0.0442,-0.0463,-0.0488,-0.0498,-0.052,-0.0531,-0.0532,-0.053,-0.054,-0.0517,-0.0539,-0.0494,-0.0486,-0.048,-0.0491,-0.0495,-0.049,-0.0548,-0.0548,-0.0548,0,0,-0.0321,-0.0342,-0.0347,-0.0375,-0.0399,-0.0405,-0.0442,-0.0449,-0.0444,-0.0492,-0.0491,-0.0505,-0.052,-0.0508,-0.0498,-0.0514,-0.0471,-0.0475,-0.047,-0.0485,-0.0491,-0.0485,-0.0481,-0.0545,-0.0546,-0.0546,0,0,-0.0295,-0.0317,-0.0314,-0.0331,-0.0351,-0.0371,-0.0362,-0.0399,-0.0408,-0.0402,-0.0433,-0.0433,-0.0434,-0.0451,-0.0455,-0.0404,-0.0432,-0.0389,-0.0364,-0.0366,-0.0362,-0.0359,-0.0367,-0.0365,-0.0385,-0.0384,-0.0384,0,-0.027,-0.0283,-0.0313,-0.0317,-0.0324,-0.0348,-0.0341,-0.0351,-0.0375,-0.0375,-0.0389,-0.0391,-0.0411,-0.0391,-0.0391,-0.0388,-0.0398,-0.0399,-0.0358,-0.0356,-0.0354,-0.0362,-0.0361,-0.0381,-0.0382,-0.0382,-0.0382,0,-0.0254,-0.0258,-0.0259,-0.0271,-0.0275,-0.0276,-0.0291,-0.0284,-0.0288,-0.0305,-0.0285,-0.0312,-0.0312,-0.0312,-0.0346,-0.0325,-0.0339,-0.035,-0.0386,-0.0344,-0.0356,-0.0355,-0.0376,-0.0378,-0.0379,-0.0379,0,0,-0.0221,-0.0241,-0.0242,-0.0236,-0.0254,-0.0252,-0.0234,-0.0232,-0.0212,-0.0224,-0.019,-0.0219,-0.0231,-0.0236,-0.0254,-0.0276,-0.0276,-0.0311,-0.0313,-0.0328,-0.0284,-0.0361,-0.0368,-0.0279,-0.0279,-0.0278,-0.0294,0,-0.0199,-0.0191,-0.0206,-0.0184,-0.0184,-0.0195,-0.0176,-0.017,-0.0168,-0.0141,-0.0151,-0.0131,-0.0195,-0.0179,-0.0207,-0.0251,-0.0275,-0.0272,-0.0316,-0.0317,-0.0398,-0.037,-0.0321,-0.0337,-0.0294,-0.0294,-0.0294,0,-0.0188,-0.0182,-0.0164,-0.0144,-0.0143,-0.0122,-0.0093,-0.0072,-0.005,-0.0037,-0.0022,-0.0038,-0.0045,-0.0098,-0.0164,-0.0157,-0.0225,-0.0274,-0.0275,-0.0375,-0.0395,-0.0373,-0.0339,-0.0294,-0.0294,-0.0294,-0.0294,0,-0.0167,-0.0152,-0.0132,-0.0134,-0.0115,-0.0089,-0.006,-0.0045,0.0009,0.0044,0.0108,0.0062,0.0096,0.0,-0.0123,-0.0134,-0.0206,-0.022,-0.0353,-0.0358,-0.0343,-0.0348,-0.0279,-0.0279,-0.0279,-0.0279,-0.0279,0,-0.0157,-0.0136,-0.0115,-0.0109,-0.0047,-0.0047,0.0031,0.0051,0.0126,0.0199,0.0184,0.0216,0.0118,0.0059,-0.0076,-0.0217,-0.0163,-0.0356,-0.037,-0.032,-0.0323,-0.0311,-0.0315,-0.028,-0.028,-0.028,-0.028,0,-0.0137,-0.014,-0.0102,-0.0066,-0.0039,0.0012,0.013,0.019,0.0255,0.037,0.0402,0.0367,0.0247,0.0131,-0.0034,-0.0136,-0.0281,-0.0351,-0.0296,-0.0307,-0.044,-0.044,-0.048,-0.0483,-0.0485,-0.0487,-0.0489,0,-0.013,-0.0123,-0.0053,-0.0002,0.0026,0.0115,0.0186,0.0257,0.0335,0.0423,0.0484,0.0411,0.0337,0.0098,-0.0123,-0.0329,-0.0364,-0.0418,-0.0453,-0.0453,-0.0462,-0.0458,-0.0455,-0.0389,-0.0389,-0.039,-0.039,0,-0.0126,-0.0103,-0.0067,0.0029,0.011,0.0223,0.0328,0.0406,0.0486,0.0567,0.0558,0.0497,0.0298,0.0065,-0.0188,-0.0343,-0.0383,-0.0444,-0.0422,-0.037,-0.0375,-0.0382,-0.0379,-0.0396,-0.0396,-0.0395,-0.0395,-0.0395,-0.0116,-0.0093,-0.0062,0.0037,0.0147,0.0258,0.0348,0.0453,0.0529,0.0667,0.0581,0.0578,0.0354,0.0021,-0.024,-0.0472,-0.0483,-0.0534,-0.0527,-0.0521,-0.0533,-0.0544,-0.0598,-0.0599,-0.0599,-0.06,-0.06,0,-0.0141,-0.0126,-0.0052,0.003,0.0148,0.0227,0.0388,0.0491,0.0561,0.0709,0.0732,0.0548,0.0317,0.0071,-0.0266,-0.0504,-0.0485,-0.0585,-0.0482,-0.0476,-0.0471,-0.0477,-0.0529,-0.053,-0.053,-0.053,0,0,-0.0164,-0.0163,-0.015,-0.004,0.008,0.0232,0.0333,0.0495,0.0642,0.0754,0.0816,0.0829,0.0478,0.0251,-0.0089,-0.0288,-0.0321,-0.0336,-0.0368,-0.02,-0.0191,-0.0422,-0.0423,0,0,0,0,0]}],[{"header":{"parameterUnit":"m.s-1","parameterCategory":2,"la1":30.2991,"la2":30.254,"lo1":-89.0895,"lo2":-89.0444,"dy":0.0017,"dx":0.0017,"nx":28,"ny":28,"refTime":"2024-04-26T03:00:00:Z","depth":"4","parameterNumber":2,"parameterNumberName":"U-component_of_CURRENTS"},"data":[0,0,0,0,0,0,0,0,0,0,0,0,0,0,0,0,0,0,0,0,0,0,0,0,0,0,0,0,0,0,0,0,0,0,0,0,0,0,0,0,0,0,0,0,0,0,0,0,0,0,0,0,0,0,0,0,0,0,0.0777,0.0778,0,0.0817,0.0818,0.0818,0.0848,0.0849,0.0849,0.085,0.0877,0.0877,0.0877,0,0,0,0,0,0,0,0,0,0,0,0,0,0.0723,0.0724,0.0777,0.0778,0.0779,0.0817,0.0818,0.0818,0.0848,0.0849,0.0849,0.085,0.0876,0.0877,0.0877,0,0,0,0,0,0,0,0,0,0,0,0,0,0.0751,0.0724,0.0777,0.08,0.0803,0.0817,0.0818,0.0818,0.0848,0.0849,0.0849,0.085,0.0876,0.0877,0.0877,0.0865,0,0,0.0878,0.0878,0,0,0,0,0,0,0,0,0.075,0.0753,0.0796,0.0798,0.0801,0.0831,0.0809,0.0834,0.0848,0.0828,0.085,0.085,0.0861,0.0863,0.0865,0.0866,0.0867,0.0878,0.0879,0.0879,0.0879,0,0,0,0,0,0,0,0.0748,0.0751,0.0791,0.0797,0.08,0.0808,0.0812,0.0814,0.0838,0.083,0.0833,0.0841,0.0862,0.0865,0.0866,0.0868,0.0878,0.0879,0.0879,0.0879,0.094,0.0941,0,0,0,0,0,0,0.0747,0.0749,0.0789,0.0792,0.078,0.0808,0.0813,0.0819,0.0838,0.0843,0.084,0.0842,0.0864,0.0866,0.0867,0.0939,0.0879,0.0879,0.0879,0.0939,0.094,0.0942,0,0,0,0,0,0,0.0746,0.075,0.0788,0.0774,0.078,0.0809,0.0814,0.0819,0.0847,0.0847,0.0851,0.0866,0.0864,0.0867,0.0895,0.0937,0.0879,0.088,0.0937,0.0939,0.0941,0.1027,0,0,0,0,0,0,0.0744,0.0749,0.0763,0.0774,0.078,0.0813,0.0814,0.0819,0.085,0.0854,0.087,0.0872,0.0865,0.0895,0.0895,0.0936,0.088,0.0935,0.0938,0.094,0.1022,0.1032,0.104,0,0,0,0,0,0.0742,0.0753,0.0764,0.0769,0.0795,0.0814,0.0818,0.0839,0.0851,0.0866,0.0882,0.0873,0.0912,0.0896,0.0897,0.0939,0.0934,0.0937,0.094,0.1018,0.103,0.1039,0,0,0,0,0,0,0.0736,0.0758,0.0769,0.0788,0.0809,0.082,0.084,0.0853,0.0877,0.0888,0.0886,0.0889,0.0928,0.0918,0.0901,0.0963,0.0923,0.0926,0.0982,0.0993,0.1001,0.1009,0.088,0,0,0,0,0,0.0741,0.0758,0.0778,0.0795,0.0809,0.0829,0.0844,0.086,0.0878,0.0891,0.0905,0.092,0.0936,0.0953,0.0958,0.0992,0.0983,0.1019,0.1028,0.1036,0.1042,0.1058,0.1069,0.0952,0.0952,0.0952,0,0,0.0743,0.0759,0.0768,0.0796,0.0814,0.0838,0.084,0.0871,0.0895,0.0888,0.0933,0.0947,0.0949,0.0989,0.1007,0.0992,0.1067,0.104,0.1046,0.1048,0.1062,0.1074,0.1084,0.0954,0.0954,0.0953,0,0,0.0748,0.0771,0.0787,0.081,0.0846,0.0859,0.0874,0.0905,0.0927,0.0964,0.0972,0.1011,0.1033,0.1051,0.106,0.1116,0.1106,0.1128,0.1189,0.1205,0.1215,0.1223,0.124,0.1249,0.1141,0.1141,0.1141,0,0.0753,0.0771,0.0795,0.082,0.0844,0.0872,0.0898,0.0921,0.096,0.0986,0.0989,0.1055,0.1059,0.1115,0.1146,0.1137,0.1148,0.1151,0.1217,0.1225,0.1232,0.1247,0.1256,0.1146,0.1145,0.1145,0.1144,0,0.0763,0.0791,0.0805,0.0845,0.0876,0.0902,0.094,0.098,0.1014,0.1039,0.1106,0.1125,0.117,0.1186,0.1188,0.1257,0.1249,0.122,0.1192,0.1249,0.1261,0.1269,0.1152,0.1151,0.1149,0.1148,0,0,0.0737,0.0798,0.0806,0.0831,0.0893,0.0913,0.0972,0.1024,0.1074,0.112,0.1178,0.1231,0.1264,0.1276,0.1296,0.1325,0.1392,0.1314,0.1312,0.1333,0.1444,0.1394,0.1397,0.1386,0.1387,0.1388,0.1437,0,0.0738,0.0781,0.0817,0.0865,0.0892,0.095,0.1002,0.1062,0.1118,0.1181,0.1223,0.129,0.1291,0.1345,0.137,0.1393,0.1416,0.1382,0.1382,0.1382,0.1332,0.1405,0.1393,0.1442,0.1444,0.1445,0.1446,0,0.0735,0.0765,0.0812,0.0883,0.0902,0.0948,0.1049,0.1103,0.12,0.125,0.133,0.1367,0.1451,0.1423,0.1492,0.148,0.1472,0.1471,0.1472,0.1398,0.1346,0.1368,0.146,0.1459,0.1458,0.1457,0.1456,0,0.0692,0.0761,0.0797,0.0822,0.0909,0.096,0.1025,0.1136,0.12,0.1322,0.1383,0.1463,0.1519,0.154,0.1568,0.1545,0.1612,0.1564,0.1501,0.1497,0.1487,0.1477,0.1579,0.1579,0.1579,0.1579,0.1579,0,0.0667,0.0691,0.079,0.0803,0.0876,0.0957,0.1053,0.1136,0.1259,0.1333,0.1432,0.1497,0.1553,0.1599,0.1598,0.1596,0.1638,0.1529,0.1513,0.1523,0.1517,0.1493,0.1482,0.158,0.158,0.158,0.1579,0,0.0604,0.0662,0.0703,0.0806,0.0856,0.0916,0.107,0.1141,0.1274,0.1376,0.1428,0.1543,0.1621,0.1659,0.169,0.1632,0.1638,0.1608,0.1646,0.1627,0.1499,0.1493,0.1548,0.1546,0.1545,0.1545,0.1544,0,0.0568,0.0583,0.0699,0.075,0.0804,0.0914,0.1,0.1144,0.1207,0.1391,0.1416,0.155,0.1607,0.1619,0.1662,0.1674,0.1634,0.1621,0.1537,0.1522,0.15,0.1495,0.149,0.1542,0.1542,0.1542,0.1541,0,0.049,0.054,0.0588,0.0693,0.0786,0.0869,0.0986,0.1027,0.1182,0.131,0.1394,0.1463,0.1528,0.1569,0.1597,0.159,0.1635,0.1609,0.1609,0.153,0.1515,0.1494,0.149,0.1538,0.1538,0.1539,0.1539,0,0.0445,0.0465,0.0542,0.0634,0.0731,0.0789,0.0865,0.0952,0.1037,0.1229,0.1253,0.1397,0.1502,0.1526,0.1558,0.1565,0.152,0.1446,0.1454,0.1458,0.141,0.1377,0.1361,0,0,0,0,0,0.0407,0.0425,0.0486,0.0569,0.0652,0.0708,0.0836,0.091,0.1052,0.1083,0.1167,0.1239,0.1329,0.1401,0.1387,0.1504,0.1511,0.1481,0.1423,0.1518,0.1522,0.1475,0,0,0,0,0,0,0.038,0.0427,0.0452,0.0484,0.053,0.0607,0.0682,0.079,0.0803,0.0964,0.1014,0.1154,0.1246,0.1314,0.1356,0.1379,0.1317,0.1575,0.1572,0.1516,0.1519,0.1523,0.1476,0,0,0,0,0]},{"header":{"parameterUnit":"m.s-1","parameterCategory":2,"la1":30.2991,"la2":30.254,"lo1":-89.0895,"lo2":-89.0444,"dy":0.0017,"dx":0.0017,"nx":28,"ny":28,"refTime":"2024-04-26T03:00:00:Z","depth":"4","parameterNumber":3,"parameterNumberName":"V-component_of_CURRENTS"},"data":[0,0,0,0,0,0,0,0,0,0,0,0,0,0,0,0,0,0,0,0,0,0,0,0,0,0,0,0,0,0,0,0,0,0,0,0,0,0,0,0,0,0,0,0,0,0,0,0,0,0,0,0,0,0,0,0,0,0,-0.0152,-0.0153,0,-0.0202,-0.0202,-0.0203,-0.0251,-0.0251,-0.0252,-0.0253,-0.0332,-0.0333,-0.0335,0,0,0,0,0,0,0,0,0,0,0,0,0,-0.0134,-0.0134,-0.0152,-0.0153,-0.0153,-0.0202,-0.0202,-0.0203,-0.0251,-0.0251,-0.0252,-0.0253,-0.0331,-0.0333,-0.0335,0,0,0,0,0,0,0,0,0,0,0,0,0,-0.0159,-0.0134,-0.0152,-0.0183,-0.0186,-0.0201,-0.0202,-0.0203,-0.0251,-0.0251,-0.0252,-0.0253,-0.0331,-0.0333,-0.0335,-0.0333,0,0,-0.0343,-0.0344,0,0,0,0,0,0,0,0,-0.0157,-0.0159,-0.0177,-0.018,-0.0184,-0.0221,-0.0225,-0.0248,-0.025,-0.0227,-0.0253,-0.0254,-0.0296,-0.0302,-0.0309,-0.0337,-0.034,-0.0343,-0.0344,-0.0345,-0.0346,0,0,0,0,0,0,0,-0.0155,-0.0158,-0.0172,-0.0178,-0.0182,-0.0206,-0.021,-0.023,-0.0257,-0.0229,-0.0232,-0.0237,-0.0299,-0.0307,-0.0312,-0.0341,-0.0343,-0.0345,-0.0346,-0.0347,-0.0393,-0.0393,0,0,0,0,0,0,-0.0145,-0.0156,-0.0171,-0.0174,-0.0172,-0.0205,-0.021,-0.0208,-0.0256,-0.0264,-0.0236,-0.0239,-0.0303,-0.0309,-0.0315,-0.033,-0.0345,-0.0348,-0.0349,-0.0393,-0.0393,-0.0393,0,0,0,0,0,0,-0.0145,-0.0146,-0.0169,-0.0166,-0.0171,-0.0204,-0.0202,-0.0209,-0.0228,-0.0261,-0.027,-0.0249,-0.0303,-0.0311,-0.0333,-0.0333,-0.0349,-0.0351,-0.0394,-0.0393,-0.0393,-0.0351,0,0,0,0,0,0,-0.0144,-0.0145,-0.0146,-0.0165,-0.017,-0.0176,-0.0202,-0.0209,-0.0229,-0.0233,-0.0276,-0.0283,-0.0305,-0.033,-0.0336,-0.0337,-0.0353,-0.0394,-0.0394,-0.0393,-0.0353,-0.035,-0.0347,0,0,0,0,0,-0.0143,-0.0135,-0.0145,-0.0148,-0.0168,-0.0176,-0.018,-0.0208,-0.0228,-0.023,-0.0259,-0.0283,-0.0332,-0.0331,-0.0338,-0.034,-0.0394,-0.0394,-0.0393,-0.0354,-0.035,-0.0347,0,0,0,0,0,0,-0.0129,-0.014,-0.0151,-0.0148,-0.0161,-0.0184,-0.0189,-0.021,-0.0234,-0.0243,-0.0278,-0.0287,-0.0308,-0.0327,-0.0326,-0.0352,-0.0367,-0.0368,-0.0335,-0.0332,-0.0329,-0.0311,-0.0355,0,0,0,0,0,-0.0124,-0.012,-0.0137,-0.0135,-0.014,-0.0167,-0.0176,-0.0193,-0.0215,-0.0228,-0.0258,-0.0288,-0.0309,-0.0323,-0.0345,-0.0357,-0.0388,-0.0364,-0.036,-0.0358,-0.0349,-0.0399,-0.04,-0.0391,-0.0391,-0.0391,0,0,-0.0119,-0.0124,-0.0123,-0.0132,-0.0145,-0.0135,-0.0175,-0.0185,-0.0177,-0.0232,-0.0238,-0.0279,-0.031,-0.0324,-0.0335,-0.0342,-0.0376,-0.0357,-0.0354,-0.0347,-0.0399,-0.04,-0.0401,-0.0391,-0.0391,-0.0391,0,0,-0.0093,-0.0109,-0.0093,-0.0099,-0.0113,-0.0123,-0.0125,-0.015,-0.0164,-0.0173,-0.0213,-0.0251,-0.028,-0.0305,-0.0319,-0.0311,-0.0359,-0.0326,-0.0296,-0.0345,-0.0346,-0.0348,-0.0387,-0.0392,-0.0323,-0.0323,-0.0323,0,-0.0087,-0.006,-0.0091,-0.0075,-0.0067,-0.0111,-0.0085,-0.0102,-0.0132,-0.0142,-0.0167,-0.0233,-0.0265,-0.0285,-0.0286,-0.0303,-0.0341,-0.0307,-0.0341,-0.0343,-0.0346,-0.0386,-0.0392,-0.0321,-0.0321,-0.0321,-0.0321,0,-0.0042,-0.0023,-0.0014,0.0,-0.0003,0.0013,-0.0008,-0.0023,-0.005,-0.0074,-0.0112,-0.0168,-0.0209,-0.023,-0.0255,-0.0287,-0.0312,-0.0333,-0.035,-0.0344,-0.0386,-0.0394,-0.0318,-0.0318,-0.0319,-0.032,0,0,-0.0015,0.0018,0.002,0.0044,0.0045,0.0047,0.0058,0.0055,0.0044,-0.0002,-0.0019,-0.0072,-0.0133,-0.0154,-0.0208,-0.0253,-0.0304,-0.0299,-0.0302,-0.0335,-0.0416,-0.0369,-0.0373,-0.0343,-0.0344,-0.0344,-0.044,0,0.0038,0.01,0.0098,0.0151,0.0183,0.0153,0.0165,0.0142,0.0104,0.0068,-0.0002,-0.0049,-0.0094,-0.0139,-0.0184,-0.0292,-0.0322,-0.0276,-0.0418,-0.0422,-0.038,-0.0379,-0.0348,-0.0445,-0.0447,-0.0448,-0.0449,0,0.0087,0.0128,0.0199,0.0236,0.0243,0.0259,0.0253,0.0252,0.019,0.0151,0.0085,0.0011,-0.0072,-0.0111,-0.0261,-0.0237,-0.0309,-0.038,-0.0386,-0.0359,-0.0388,-0.0454,-0.0463,-0.0462,-0.0461,-0.046,-0.0459,0,0.0131,0.0193,0.0259,0.0273,0.0303,0.0316,0.0318,0.0273,0.0254,0.0182,0.0139,0.0039,-0.0035,-0.0144,-0.0286,-0.029,-0.0444,-0.047,-0.0481,-0.0479,-0.0514,-0.0511,-0.0539,-0.0539,-0.0539,-0.0539,-0.0539,0,0.0193,0.0237,0.0281,0.0314,0.0346,0.0356,0.0356,0.033,0.0291,0.0261,0.0171,0.0117,-0.0051,-0.0161,-0.0276,-0.0401,-0.0437,-0.0469,-0.0498,-0.0493,-0.0488,-0.0519,-0.0515,-0.0542,-0.0542,-0.0541,-0.054,0,0.0209,0.0258,0.0311,0.036,0.0364,0.0371,0.0362,0.0352,0.0322,0.0277,0.0251,0.0144,0.0008,-0.0138,-0.0322,-0.0386,-0.0514,-0.0533,-0.0507,-0.0534,-0.0519,-0.0513,-0.0573,-0.0572,-0.0571,-0.057,-0.057,0,0.022,0.026,0.0308,0.0309,0.0324,0.0337,0.0334,0.0342,0.0334,0.0294,0.0275,0.016,0.0077,-0.0135,-0.0288,-0.0479,-0.0488,-0.0551,-0.0535,-0.0499,-0.0522,-0.0516,-0.0511,-0.0569,-0.0568,-0.0568,-0.0568,0,0.0212,0.0228,0.0256,0.028,0.0289,0.0307,0.0323,0.0333,0.0351,0.0316,0.0293,0.0194,0.0066,-0.0104,-0.0237,-0.0377,-0.0523,-0.0543,-0.0546,-0.0532,-0.0495,-0.0517,-0.0513,-0.0565,-0.0566,-0.0566,-0.0566,0,0.0161,0.0165,0.0208,0.0233,0.0254,0.0307,0.031,0.0338,0.0354,0.0346,0.0333,0.0211,0.0127,-0.005,-0.0187,-0.0308,-0.034,-0.0378,-0.039,-0.0395,-0.0308,-0.0233,-0.0241,0,0,0,0,0,0.0105,0.0134,0.0153,0.0212,0.0252,0.029,0.032,0.0334,0.0367,0.0363,0.0366,0.026,0.009,0.0,-0.0109,-0.0191,-0.0378,-0.0324,-0.0432,-0.055,-0.0553,-0.0475,0,0,0,0,0,0,0.0062,0.0084,0.015,0.0228,0.0269,0.0332,0.0371,0.0382,0.039,0.0389,0.0296,0.0248,0.0068,0.0163,-0.0103,-0.0144,-0.0224,-0.0415,-0.0417,-0.0548,-0.0551,-0.0554,-0.0475,0,0,0,0,0]}]]